Date String (YYYY-MM-DD hh:mm:ss) UTC,Instrument flags,absolute air pressure of the measurement (hPa),sample flow rate (lpm),inlet stack bypass flow (lpm),air temperature of the measurement (°C),ambient temperature measured by the external sensor (°C),aerosol sample conditioner tube jacket temperature (°C),OPC LED temperature (°C),internal box temperature (°C),relative humidity of the measurement (%),span deviation,mass concentration of particles derived from Lorenz-Mie calculation of OPC scattering (μg/m³),mass concentration of particles derived from Lorenz-Mie calculation of OPC scattering (μg/m³),mass concentration of particles derived from Lorenz-Mie calculation of OPC scattering (μg/m³)
DateTimeUTC,F1_M11,P_M11,Q1_M11,Q2_M11,T1_M11,T2_M11,T3_M11,T4_M11,T5_M11,U1_M11,ZSPAN_M11,X2_M11,X0_M11,X1_M11
2023-08-27 03:00:00,SystemResetWarning,0837.0,4.99,000.00,031.1,024.8,000.0,038.5,030.3,35.5,0000.0,0006.69,0009.64,0006.38
2023-08-27 03:01:00,SystemResetWarning,0837.0,5.01,000.00,031.3,025.2,000.0,038.5,030.5,34.9,0000.0,0006.68,0010.37,0006.38
2023-08-27 03:02:00,SystemResetWarning,0837.0,4.97,000.00,031.6,025.7,000.0,038.6,030.7,34.4,0000.0,0006.71,0010.69,0006.38
2023-08-27 03:03:00,SystemResetWarning,0837.1,5.00,000.00,031.7,026.0,000.0,038.7,030.7,33.6,0000.0,0006.74,0010.97,0006.41
2023-08-27 03:04:00,SystemResetWarning,0837.0,5.01,000.00,031.8,026.4,000.0,038.8,030.8,33.0,0000.0,0006.79,0011.63,0006.46
2023-08-27 03:05:00,SystemResetWarning,0837.0,4.99,000.00,031.8,026.6,000.0,039.0,030.8,33.0,0000.0,0006.81,0011.75,0006.50
2023-08-27 03:06:00,SystemResetWarning,0837.0,5.00,000.00,031.8,026.9,000.0,039.1,030.8,32.7,0000.0,0006.85,0012.01,0006.56
2023-08-27 03:07:00,SystemResetWarning,0837.0,5.01,000.00,031.8,027.0,000.0,039.2,030.9,32.6,-000.8,0006.88,0012.07,0006.62
2023-08-27 03:08:00,SystemResetWarning,0837.0,5.00,000.00,031.8,027.2,000.0,039.3,030.9,32.9,-000.5,0006.92,0011.97,0006.68
2023-08-27 03:09:00,SystemResetWarning,0837.0,5.00,000.00,031.8,027.4,000.0,039.3,031.0,32.8,-000.7,0006.95,0011.38,0006.71
2023-08-27 03:10:00,SystemResetWarning,0837.1,5.00,000.00,031.7,027.5,000.0,039.4,031.0,33.7,-000.2,0007.01,0011.38,0006.75
2023-08-27 03:11:00,SystemResetWarning,0837.0,4.99,000.00,031.7,027.0,000.0,039.4,031.0,34.2,-000.1,0007.07,0011.51,0006.80
2023-08-27 03:12:00,SystemResetWarning,0837.0,5.00,000.00,031.7,025.4,000.0,039.2,030.7,34.1,-000.4,0007.10,0010.78,0006.83
2023-08-27 03:13:00,SystemResetWarning,0837.0,5.01,000.00,031.6,024.8,000.0,039.1,030.6,34.0,-000.1,0007.10,0010.90,0006.84
2023-08-27 03:14:00,SystemResetWarning,0837.0,5.01,000.00,031.4,024.9,000.0,039.2,030.4,34.3,0000.0,0007.11,0010.94,0006.83
2023-08-27 03:15:00,SystemResetWarning,0837.0,5.00,000.00,031.3,025.2,000.0,039.2,030.4,34.8,0000.0,0007.10,0010.33,0006.83
2023-08-27 03:16:00,SystemResetWarning,0837.0,4.98,000.00,031.2,025.6,000.0,039.2,030.5,35.2,0000.0,0007.09,0010.17,0006.83
2023-08-27 03:17:00,SystemResetWarning,0837.0,5.03,000.00,031.3,026.0,000.0,039.2,030.7,35.2,0000.0,0007.10,0009.93,0006.82
2023-08-27 03:18:00,SystemResetWarning,0837.1,4.97,000.00,031.4,026.3,000.0,039.2,030.8,34.5,0000.0,0007.09,0009.88,0006.80
2023-08-27 03:19:00,SystemResetWarning,0837.1,5.00,000.00,031.5,026.6,000.0,039.2,030.9,34.1,0000.0,0007.09,0010.15,0006.80
2023-08-27 03:20:00,SystemResetWarning,0837.2,5.01,000.00,031.6,026.8,000.0,039.2,030.9,33.7,0000.0,0007.06,0010.46,0006.78
2023-08-27 03:21:00,SystemResetWarning,0837.2,5.00,000.00,031.6,027.0,000.0,039.3,030.9,33.5,0000.0,0007.06,0010.51,0006.77
2023-08-27 03:22:00,SystemResetWarning,0837.2,5.00,000.00,031.6,027.2,000.0,039.3,031.0,33.4,0000.0,0007.03,0010.44,0006.75
2023-08-27 03:23:00,SystemResetWarning,0837.2,5.00,000.00,031.5,027.3,000.0,039.4,031.0,33.4,0000.0,0007.01,0010.41,0006.73
2023-08-27 03:24:00,SystemResetWarning,0837.1,5.00,000.00,031.5,027.3,000.0,039.4,031.0,33.4,0000.0,0007.02,0010.01,0006.73
2023-08-27 03:25:00,SystemResetWarning,0837.1,4.98,000.00,031.5,025.9,000.0,039.2,030.8,33.5,0000.0,0007.04,0009.99,0006.74
2023-08-27 03:26:00,SystemResetWarning,0837.0,5.00,000.00,031.4,024.4,000.0,039.1,030.5,33.7,0000.0,0007.06,0010.25,0006.76
2023-08-27 03:27:00,SystemResetWarning,0837.0,5.00,000.00,031.3,023.9,000.0,039.0,030.2,33.8,0000.0,0007.12,0010.56,0006.79
2023-08-27 03:28:00,SystemResetWarning,0837.0,5.01,000.00,031.0,024.1,000.0,039.0,030.0,34.2,0000.0,0007.13,0010.57,0006.80
2023-08-27 03:29:00,SystemResetWarning,0837.1,5.01,000.00,030.8,024.6,000.0,039.0,030.1,34.7,-000.0,0007.13,0010.55,0006.81
2023-08-27 03:30:00,SystemResetWarning,0836.9,4.99,000.00,030.8,025.1,000.0,039.0,030.2,35.1,0000.2,0007.15,0010.33,0006.81
2023-08-27 03:31:00,SystemResetWarning,0837.1,5.02,000.00,030.9,025.5,000.0,039.0,030.4,34.7,0000.0,0007.18,0010.07,0006.83
2023-08-27 03:32:00,SystemResetWarning,0837.1,4.98,000.00,030.9,025.9,000.0,039.0,030.5,34.4,0000.0,0007.16,0010.07,0006.84
2023-08-27 03:33:00,SystemResetWarning,0837.1,5.02,000.00,031.0,026.2,000.0,039.0,030.6,34.3,0000.0,0007.15,0010.03,0006.84
2023-08-27 03:34:00,SystemResetWarning,0837.1,4.99,000.00,031.0,026.5,000.0,039.0,030.6,34.6,0000.0,0007.16,0010.06,0006.84
2023-08-27 03:35:00,SystemResetWarning,0837.0,4.97,000.00,031.0,026.7,000.0,039.0,030.7,35.1,0000.0,0007.13,0010.07,0006.81
2023-08-27 03:36:00,SystemResetWarning,0837.0,5.02,000.00,031.0,026.9,000.0,039.0,030.8,35.5,0000.0,0007.06,0010.48,0006.78
2023-08-27 03:37:00,SystemResetWarning,0837.0,5.01,000.00,031.3,027.1,000.0,039.0,030.9,34.9,0000.0,0007.03,0010.76,0006.74
2023-08-27 03:38:00,SystemResetWarning,0837.1,4.97,000.00,031.5,027.2,000.0,039.0,031.0,34.2,0000.0,0006.98,0010.47,0006.70
2023-08-27 03:39:00,SystemResetWarning,0837.1,5.01,000.00,031.6,027.3,000.0,039.1,031.1,33.7,0000.0,0006.95,0010.42,0006.68
2023-08-27 03:40:00,SystemResetWarning,0837.1,5.01,000.00,031.7,027.4,000.0,039.1,031.1,33.6,0000.0,0006.96,0010.48,0006.67
2023-08-27 03:41:00,SystemResetWarning,0837.1,4.99,000.00,031.7,027.4,000.0,039.2,031.1,33.7,0000.0,0006.94,0010.48,0006.65
2023-08-27 03:42:00,SystemResetWarning,0837.1,4.98,000.00,031.7,026.0,000.0,039.1,030.9,33.7,0000.0,0006.90,0010.45,0006.62
2023-08-27 03:43:00,SystemResetWarning,0837.0,5.01,000.00,031.7,024.4,000.0,039.0,030.6,33.9,0000.0,0006.90,0010.88,0006.61
2023-08-27 03:44:00,SystemResetWarning,0837.0,5.00,000.00,031.5,023.9,000.0,038.9,030.3,34.2,0000.0,0006.93,0011.07,0006.63
2023-08-27 03:45:00,SystemResetWarning,0837.0,5.01,000.00,031.3,024.1,000.0,039.0,030.0,34.5,0000.2,0006.95,0011.08,0006.66
2023-08-27 03:46:00,SystemResetWarning,0837.1,5.01,000.00,031.1,024.5,000.0,039.0,030.1,34.7,0000.5,0007.00,0011.15,0006.70
2023-08-27 03:47:00,SystemResetWarning,0837.0,4.97,000.00,031.0,025.0,000.0,039.1,030.2,35.4,0001.4,0007.05,0010.55,0006.73
2023-08-27 03:48:00,SystemResetWarning,0837.0,5.03,000.00,031.1,025.4,000.0,039.1,030.4,35.4,0001.3,0007.08,0010.11,0006.76
2023-08-27 03:49:00,SystemResetWarning,0837.1,5.00,000.00,031.3,025.8,000.0,039.1,030.6,35.0,0001.6,0007.10,0010.12,0006.79
2023-08-27 03:50:00,SystemResetWarning,0837.1,4.98,000.00,031.5,026.2,000.0,039.1,030.8,34.7,0001.9,0007.11,0010.56,0006.80
2023-08-27 03:51:00,SystemResetWarning,0837.1,5.00,000.00,031.6,026.4,000.0,039.1,030.8,34.3,0001.5,0007.10,0010.81,0006.80
2023-08-27 03:52:00,SystemResetWarning,0837.1,5.01,000.00,031.7,026.7,000.0,039.1,030.8,34.0,0001.2,0007.10,0010.80,0006.80
2023-08-27 03:53:00,SystemResetWarning,0837.1,4.99,000.00,031.7,026.9,000.0,039.2,030.8,33.8,0001.6,0007.12,0010.78,0006.81
2023-08-27 03:54:00,SystemResetWarning,0837.1,5.00,000.00,031.6,027.0,000.0,039.3,030.9,33.8,0001.7,0007.13,0010.28,0006.81
2023-08-27 03:55:00,SystemResetWarning,0837.1,5.00,000.00,031.6,027.2,000.0,039.3,030.9,33.8,0001.7,0007.12,0010.18,0006.79
2023-08-27 03:56:00,SystemResetWarning,0837.1,5.00,000.00,031.6,027.3,000.0,039.4,030.9,33.9,0001.5,0007.09,0010.11,0006.77
2023-08-27 03:57:00,SystemResetWarning,0837.0,5.01,000.00,031.6,027.4,000.0,039.4,031.0,33.9,0001.1,0007.04,0010.30,0006.73
2023-08-27 03:58:00,SystemResetWarning,0837.0,5.01,000.00,031.5,027.5,000.0,039.4,031.0,33.9,0000.8,0007.03,0010.41,0006.73
2023-08-27 03:59:00,SystemResetWarning,0836.9,5.01,000.00,031.5,027.5,000.0,039.5,031.0,33.9,0000.9,0007.02,0010.38,0006.73
